Weather History for Meridian NAS, MS

Change the Weather History Date:

Monday, April 8, 2013

  Actual Average Record
Temperature  
Mean Temperature 66 °F -  
Max Temperature 82 °F 72 °F 86 °F (2011)
Min Temperature 51 °F 50 °F 32 °F (2009)
Cooling Degree Days 1    
Growing Degree Days 16 (Base 50)    
Moisture  
Dew Point 56 °F    
Average Humidity 80    
Maximum Humidity 100    
Minimum Humidity 44    
Precipitation  
Precipitation 0.00 in - - ()
Sea Level Pressure  
Sea Level Pressure 30.04 in    
Wind  
Wind Speed 5 mph (SSE)    
Max Wind Speed 12 mph    
Max Gust Speed 23 mph    
Visibility 7 miles    
Events Fog    
Averages and records for this station are not official NWS values.
T = Trace of Precipitation, MM = Missing Value Source: NWS Daily Summary

Daily Weather History Graph

Daily Weather History Graph

Search for Another Location

Airport:

Trip Planner

Search our weather history database for the weather conditions in past years. The results will help you decide how hot, cold, wet, or windy it might be!

Date:

Astronomy

Apr. 08, 2013 Rise Set
Actual Time 6:33 AM CDT 7:19 PM CDT
Civil Twilight 6:08 AM CDT 7:44 PM CDT
Nautical Twilight 5:38 AM CDT 8:13 PM CDT
Astronomical Twilight 5:08 AM CDT 8:44 PM CDT
Moon 5:18 AM CDT (4/8) 5:56 PM CDT (4/8)
Length of Visible Light 13h 36m
Length of Day
12h 46m
Waning Crescent, 3% of the Moon is Illuminated
Apr 8
Waning Crescent
Apr 10
New
Apr 18
First Quarter
Apr 25
Full
May 2
Last Quarter

Hourly Weather History & Observations

Time (CDT) Temp. Heat Index Dew Point Humidity Pressure Visibility Wind Dir Wind Speed Gust Speed Precip Events Conditions
12:56 AM 60.1 °F - 53.1 °F 78% 30.05 in 10.0 mi South 4.6 mph - N/A   Clear
1:56 AM 57.9 °F - 53.1 °F 84% 30.04 in 10.0 mi SSE 4.6 mph - N/A   Clear
2:56 AM 54.0 °F - 52.0 °F 93% 30.02 in 10.0 mi Calm Calm - N/A   Clear
3:56 AM 54.0 °F - 52.0 °F 93% 30.03 in 10.0 mi Calm Calm - N/A   Clear
4:56 AM 51.1 °F - 50.0 °F 96% 30.04 in 9.0 mi Calm Calm - N/A   Clear
5:04 AM 51.8 °F - 51.8 °F 100% 30.01 in 2.5 mi Calm Calm - N/A   Partly Cloudy
5:25 AM 51.8 °F - 50.0 °F 94% 30.00 in 1.2 mi ESE 4.6 mph - N/A   Clear
5:30 AM 51.8 °F - 51.8 °F 100% 30.00 in 3.0 mi SE 3.5 mph - N/A   Clear
5:40 AM 53.6 °F - 51.8 °F 94% 30.01 in 3.0 mi SE 5.8 mph - N/A   Scattered Clouds
5:43 AM 53.6 °F - 51.8 °F 94% 30.01 in 1.8 mi SE 5.8 mph - N/A   Scattered Clouds
5:46 AM 53.6 °F - 51.8 °F 94% 30.01 in 1.0 mi SE 4.6 mph - N/A   Mist
5:51 AM 53.6 °F - 51.8 °F 94% 30.01 in 0.5 mi SE 5.8 mph - N/A Fog Fog
5:56 AM 53.1 °F - 52.0 °F 96% 30.04 in 0.5 mi SE 5.8 mph - N/A Fog Fog
6:14 AM 53.6 °F - 51.8 °F 94% 30.02 in 0.5 mi SE 3.5 mph - N/A Fog Fog
6:46 AM 53.6 °F - 53.6 °F 100% 30.03 in 0.2 mi SE 5.8 mph - N/A Fog Fog
6:56 AM 54.0 °F - 54.0 °F 100% 30.06 in 0.2 mi SE 5.8 mph - N/A Fog Fog
7:29 AM 55.4 °F - 55.4 °F 100% 30.04 in 0.5 mi SE 3.5 mph - N/A Fog Fog
7:56 AM 57.9 °F - 57.0 °F 97% 30.07 in 0.5 mi SE 5.8 mph - N/A Fog Fog
8:37 AM 60.8 °F - 59.0 °F 94% 30.05 in 1.5 mi SE 4.6 mph - N/A   Overcast
8:45 AM 60.8 °F - 59.0 °F 94% 30.05 in 3.0 mi SE 6.9 mph - N/A   Overcast
8:56 AM 61.0 °F - 59.0 °F 93% 30.08 in 6.0 mi SSE 6.9 mph - N/A   Overcast
9:49 AM 62.6 °F - 60.8 °F 94% 30.07 in 10.0 mi South 6.9 mph - N/A   Overcast
9:56 AM 63.0 °F - 61.0 °F 93% 30.10 in 10.0 mi SE 5.8 mph - N/A   Overcast
10:19 AM 66.2 °F - 60.8 °F 83% 30.07 in 10.0 mi Variable 4.6 mph - N/A   Overcast
10:45 AM 69.8 °F - 60.8 °F 73% 30.07 in 10.0 mi SSE 9.2 mph - N/A   Mostly Cloudy
10:56 AM 70.0 °F - 62.1 °F 76% 30.09 in 10.0 mi South 5.8 mph - N/A   Mostly Cloudy
11:11 AM 71.6 °F - 62.6 °F 73% 30.07 in 10.0 mi SSE 5.8 mph - N/A   Mostly Cloudy
11:56 AM 75.0 °F - 60.1 °F 60% 30.09 in 10.0 mi SSW 10.4 mph - N/A   Mostly Cloudy
12:56 PM 78.1 °F - 57.9 °F 50% 30.06 in 10.0 mi South 11.5 mph 23.0 mph N/A   Scattered Clouds
1:56 PM 79.0 °F - 57.9 °F 48% 30.04 in 10.0 mi South 8.1 mph 17.3 mph N/A   Mostly Cloudy
2:56 PM 81.0 °F 81.0 °F 57.0 °F 44% 30.03 in 10.0 mi SSW 10.4 mph - N/A   Mostly Cloudy
3:56 PM 80.1 °F 80.4 °F 57.0 °F 45% 30.01 in 10.0 mi South 9.2 mph - N/A   Mostly Cloudy
4:56 PM 81.0 °F 81.1 °F 57.9 °F 45% 29.99 in 10.0 mi SSE 10.4 mph - N/A   Mostly Cloudy
5:56 PM 80.1 °F 80.4 °F 57.0 °F 45% 30.00 in 10.0 mi South 10.4 mph - N/A   Mostly Cloudy
6:56 PM 77.0 °F - 57.0 °F 50% 30.01 in 10.0 mi South 6.9 mph - N/A   Mostly Cloudy
7:56 PM 73.9 °F - 57.0 °F 55% 30.02 in 10.0 mi South 5.8 mph - N/A   Mostly Cloudy
8:56 PM 72.0 °F - 57.9 °F 61% 30.03 in 10.0 mi SSE 5.8 mph - N/A   Mostly Cloudy
9:56 PM 71.1 °F - 59.0 °F 66% 30.04 in 10.0 mi SSE 6.9 mph - N/A   Mostly Cloudy
10:56 PM 69.1 °F - 60.1 °F 73% 30.04 in 10.0 mi SSE 6.9 mph - N/A   Mostly Cloudy
11:56 PM 68.0 °F - 61.0 °F 78% 30.02 in 10.0 mi SSE 5.8 mph - N/A   Mostly Cloudy